Accueil
METAR-TAF:

METAR-TAF

Aéroports :

McMinnville, Oregon, États-Unis

latitude: 45-11-46N, longitude: 123-07-56W, altitude: 48 m

Observation

Le bulletin a été fait il y a 27 minutes, à 16:53 UTC
Vent 5 kt de nord/nord-ouest
Température 5°C
Humidité 75%
Pression 1021 hPa
Visibilité: 16.1 km
Ciel clair

METAR: KMMV 191653Z AUTO 34005KT 10SM CLR 05/01 A3015 RMK AO2 SLP209 T00500006

Heure: 09:20 (17:20 UTC)


TAF: absent

Observations et prévisions météorologiques de plus de 4000 aéroports (messages METAR et TAF).

Les stations disponibles sont représentées par des disques jaunes et rouges sur la carte.

Passer la souris dessus pour voir le nom de la station.

Cliquer dessus pour voir les observations et prévisions météorologiques.

Pour changer de carte: cliquez sur les boutons verts avec une croix noire pour zoomer, sur le bouton vert avec un tiret pour effectuer un zoom arrière, ou sur les flèches vertes pour les cartes adjacentes.


METAR-TAF: